Location: Cactus School
(34.5700°N, 118.0931°W)
Time: 09:32:58
(UTC-07:00)

S-56A Canister/Altair - Pass Details

Date: 18 April 2024
Orbit: 638 x 2488 km, 38.9° (Epoch: 29 May)

Event Time Altitude Azimuth Distance (km) Brightness Sun altitude
Rises 01:32:45 0° 285° (WNW) 5,036 11.7 -43.3°
Enters shadow 01:35:43 - 277° (W) 4,406 11.3 -43.2°
Reaches altitude 10° 01:36:18 10° 275° (W) 4,296 - -43.2°
Maximum altitude 01:46:14 30° 221° (SW) 3,451 - -42.6°
Drops below altitude 10° 01:58:07 10° 167° (SSE) 5,130 - -41.7°
Sets 02:02:56 0° 158° (SSE) 6,141 - -41.3°
